User: anonymous   Login
Location: Unspecified
(0.0000°N, 0.0000°E)
Time: 10:03:52
(UTC+00:00)
Language:

STARLINK-4079 - Orbit

View from above orbital plane
View from above orbital plane
View from above satellite
View from above satellite

Ground track
Ground track

The orbit is defined by the following mean orbital elements,

1 52666U          26145.47077745 +.00000000 +00000-0 +16984-4 0 00009
2 52666  53.2133 169.0491 0000945  73.5693 286.5403 15.08842465    06
Epoch (UTC): 25 May 2026 11:17:55
Eccentricity: 0.0000945
inclination: 53.2133°
perigee height: 539 km
apogee height: 540 km
right ascension of ascending node: 169.0491°
argument of perigee: 73.5693°
revolutions per day: 15.08842465
mean anomaly at epoch: 286.5403°

The dashed part of the orbit path shows where the satellite is in the earth's shadow,  

DLR